Вернуться в каталог

YAOGAN-41

АктивенВоенныеGEO
NORAD 58582·PAYLOAD·🇨🇳 China

Запущен Dec 15, 2023 с Wenchang Space Launch Site

Loading…

TLE

СвежийSource: Space-Track

Эпоха: Sep 14, 2026, 22:56 UTC

1 58582U 23197A   26257.95588757 -.00000370  00000-0  00000-0 0  9997
2 58582   2.9734 314.6833 0013605 211.2365 295.2922  1.00274668 10228

Отслеживайте YAOGAN-41 в реальном времени с AllMySat

Download on the App Store